Location: Hollin Hills
(38.7573°N, 77.0661°W)
Time: 18:35:28
(UTC+00:00)

BlueWalker 3 - Pass Details

Date: 10 April 2026
Orbit: 447 x 458 km, 53.2° (Epoch: 12 May)

Event Time Altitude Azimuth Distance (km) Brightness Sun altitude
Rises 02:15:35 0° 293° (WNW) 2,474 6.6 -28.3°
Reaches altitude 10° 02:18:28 10° 269° (W) 1,596 5.0 -28.7°
Enters shadow 02:19:08 12° 259° (W) 1,461 4.7 -28.8°
